User: anonymous   Login
Location: Fort Wayne
(41.1310°N, 85.1290°W)
Time: 09:13:14
(UTC-04:00)
Language:

CZ-2C R/B - Orbit

View from above orbital plane
View from above orbital plane
View from above satellite
View from above satellite

Ground track
Ground track

The orbit data is extracted from the following two-line orbital elements,

1 36089U 09061B   15187.51398380  .00000175  00000-0  54961-4 0  9993
2 36089 098.0701 209.7633 0083620 077.3716 044.3855 14.49462887298600
Epoch (UTC): 06 July 2015 12:20:08
Eccentricity: 0.0083620
inclination: 98.0701°
perigee height: 668 km
apogee height: 787 km
right ascension of ascending node: 209.7633°
argument of perigee: 77.3716°
revolutions per day: 14.49462887
mean anomaly at epoch: 44.3855°
orbit number at epoch: 29860

The dashed part of the orbit path shows where the satellite is in the earth's shadow,  

DLR